Weather History for Springfield, VT

Change the Weather History Date:

Tuesday, February 12, 2013

  Actual Average Record
Temperature  
Mean Temperature 35 °F 22 °F  
Max Temperature 39 °F 32 °F 46 °F (1999)
Min Temperature 31 °F 12 °F -13 °F (2014)
Degree Days  
Heating Degree Days 30 43  
Month to date heating degree days 544 527  
Since 1 July heating degree days 4268 4799  
Moisture  
Dew Point 24 °F    
Average Humidity 74    
Maximum Humidity 100    
Minimum Humidity 48    
Precipitation  
Precipitation 0.02 in 0.11 in 0.45 in (1998)
Month to date precipitation 0.81 1.16  
Year to date precipitation 2.14 4.08  
Sea Level Pressure  
Sea Level Pressure 29.71 in    
Wind  
Wind Speed 10 mph (West)    
Max Wind Speed 24 mph    
Max Gust Speed 32 mph    
Visibility 8 miles    
Events Snow    
T = Trace of Precipitation, MM = Missing Value Source: NWS Daily Summary

Daily Weather History Graph

Daily Weather History Graph

Search for Another Location

Airport:

Trip Planner

Search our weather history database for the weather conditions in past years. The results will help you decide how hot, cold, wet, or windy it might be!

Date:

Astronomy

Feb. 12, 2013 Rise Set
Actual Time 6:52 AM EST 5:17 PM EST
Civil Twilight 6:22 AM EST 5:46 PM EST
Nautical Twilight 5:49 AM EST 6:20 PM EST
Astronomical Twilight 5:15 AM EST 6:53 PM EST
Moon 7:41 AM EST (2/12) 8:21 PM EST (2/12)
Length of Visible Light 11h 24m
Length of Day
10h 25m
Waxing Crescent, 7% of the Moon is Illuminated
Feb 12
Waxing Crescent
Feb 17
First Quarter
Feb 25
Full
Mar 4
Last Quarter
Mar 11
New

Hourly Weather History & Observations

Time (EST) Temp. Windchill Dew Point Humidity Pressure Visibility Wind Dir Wind Speed Gust Speed Precip Events Conditions
12:02 AM 30.2 °F 26.7 °F 30.2 °F 100% 29.61 in 3.0 mi SSW 3.5 mph - 0.00 in   Overcast
12:40 AM 32.0 °F 24.8 °F 28.4 °F 87% 29.61 in 10.0 mi West 8.1 mph 17.3 mph 0.00 in   Overcast
12:51 AM 33.8 °F 28.6 °F 28.4 °F 81% 29.61 in 10.0 mi Variable 5.8 mph - 0.00 in   Overcast
12:54 AM 33.1 °F 26.1 °F 27.0 °F 78% 29.64 in 10.0 mi SW 8.1 mph 16.1 mph 0.00 in   Overcast
1:54 AM 34.0 °F 28.0 °F 27.0 °F 75% 29.64 in 10.0 mi Variable 6.9 mph - N/A   Overcast
2:54 AM 35.1 °F 31.0 °F 25.0 °F 67% 29.64 in 10.0 mi Variable 4.6 mph - N/A   Overcast
3:54 AM 35.1 °F 26.9 °F 24.1 °F 64% 29.64 in 10.0 mi West 11.5 mph 19.6 mph N/A   Overcast
4:54 AM 35.1 °F 28.6 °F 24.1 °F 64% 29.64 in 10.0 mi WSW 8.1 mph - N/A   Overcast
5:54 AM 36.0 °F 29.0 °F 21.9 °F 57% 29.64 in 10.0 mi West 9.2 mph - N/A   Overcast
6:54 AM 36.0 °F 28.5 °F 21.9 °F 57% 29.65 in 10.0 mi West 10.4 mph 17.3 mph N/A   Mostly Cloudy
7:54 AM 36.0 °F 25.6 °F 21.0 °F 55% 29.66 in 10.0 mi West 18.4 mph 28.8 mph N/A   Partly Cloudy
8:54 AM 37.0 °F 27.0 °F 21.0 °F 52% 29.65 in 10.0 mi West 18.4 mph 26.5 mph N/A   Partly Cloudy
9:54 AM 39.0 °F 28.8 °F 21.9 °F 50% 29.65 in 10.0 mi West 21.9 mph 32.2 mph N/A   Partly Cloudy
10:54 AM 37.9 °F 28.9 °F 23.0 °F 55% 29.69 in 4.0 mi West 16.1 mph 26.5 mph N/A   Haze
10:57 AM 37.4 °F 27.5 °F 23.0 °F 56% 29.67 in 1.5 mi West 18.4 mph 26.5 mph 0.00 in Snow Light Snow
11:06 AM 39.2 °F 30.2 °F 23.0 °F 52% 29.67 in 4.0 mi West 17.3 mph 29.9 mph 0.01 in   Haze
11:54 AM 37.9 °F 30.0 °F 23.0 °F 55% 29.69 in 10.0 mi West 12.7 mph 24.2 mph 0.01 in   Overcast
12:54 PM 37.9 °F 31.5 °F 24.1 °F 57% 29.70 in 10.0 mi West 9.2 mph 20.7 mph N/A   Overcast
1:01 PM 37.4 °F 28.9 °F 24.8 °F 60% 29.68 in 1.0 mi West 13.8 mph 21.9 mph 0.00 in Snow Light Snow
1:08 PM 37.4 °F 28.2 °F 24.8 °F 60% 29.69 in 0.8 mi West 16.1 mph 21.9 mph 0.01 in Snow Light Snow
1:12 PM 37.4 °F 30.3 °F 24.8 °F 60% 29.69 in 2.0 mi West 10.4 mph 21.9 mph 0.01 in   Haze
1:20 PM 37.4 °F 28.5 °F 24.8 °F 60% 29.69 in 10.0 mi West 15.0 mph 25.3 mph 0.01 in   Overcast
1:54 PM 37.9 °F 32.1 °F 24.1 °F 57% 29.72 in 10.0 mi West 8.1 mph 18.4 mph 0.01 in   Overcast
2:54 PM 37.9 °F 32.7 °F 24.1 °F 57% 29.74 in 10.0 mi West 6.9 mph - N/A   Overcast
3:54 PM 37.9 °F 32.1 °F 24.1 °F 57% 29.75 in 10.0 mi West 8.1 mph 16.1 mph N/A   Overcast
4:54 PM 37.9 °F 32.7 °F 23.0 °F 55% 29.76 in 10.0 mi Variable 6.9 mph - N/A   Overcast
5:54 PM 36.0 °F 28.5 °F 23.0 °F 59% 29.78 in 10.0 mi West 10.4 mph 21.9 mph N/A   Overcast
6:54 PM 36.0 °F 30.3 °F 21.9 °F 57% 29.80 in 10.0 mi West 6.9 mph - N/A   Overcast
7:54 PM 35.1 °F 27.4 °F 21.9 °F 59% 29.84 in 10.0 mi WSW 10.4 mph 20.7 mph N/A   Overcast
8:20 PM 35.6 °F 27.5 °F 21.2 °F 56% 29.84 in 10.0 mi West 11.5 mph - N/A   Overcast
8:54 PM 35.1 °F 28.6 °F 23.0 °F 61% 29.87 in 10.0 mi WNW 8.1 mph - N/A   Overcast
9:54 PM 34.0 °F 24.6 °F 24.1 °F 67% 29.84 in 10.0 mi West 13.8 mph 20.7 mph 0.00 in   Overcast
10:54 PM 33.1 °F 28.7 °F 21.9 °F 64% 29.83 in 10.0 mi Variable 4.6 mph - 0.00 in   Overcast
11:54 PM 33.1 °F 25.5 °F 21.0 °F 61% 29.84 in 10.0 mi WSW 9.2 mph - N/A   Overcast